Weather History for KLAR - March, 2013

Change the Weather History Date:

Friday, March 22, 2013

  Actual Average Record
Temperature  
Mean Temperature 23 °F 32 °F  
Max Temperature 32 °F 45 °F 70 °F (2004)
Min Temperature 14 °F 20 °F -5 °F (1952)
Degree Days  
Heating Degree Days 42 33  
Month to date heating degree days 733 774  
Since 1 July heating degree days 6637 6950  
Cooling Degree Days 0 0  
Month to date cooling degree days 0 0  
Year to date cooling degree days 0 0  
Moisture  
Dew Point 6 °F    
Average Humidity 51    
Maximum Humidity 74    
Minimum Humidity 27    
Precipitation  
Precipitation T in 0.02 in 0.42 in (1984)
Month to date precipitation 0.20 0.39  
Year to date precipitation 0.77 1.00  
Sea Level Pressure  
Sea Level Pressure 29.81 in    
Wind  
Wind Speed 13 mph (NW)    
Max Wind Speed 26 mph    
Max Gust Speed 32 mph    
Visibility 10 miles    
Events Snow    
T = Trace of Precipitation, MM = Missing Value Source: NWS Daily Summary

Daily Weather History Graph

Daily Weather History Graph

Search for Another Location

Airport or City:

Trip Planner

Search our weather history database for the weather conditions in past years. The results will help you decide how hot, cold, wet, or windy it might be!

Date:

Astronomy

Mar. 22, 2013 Rise Set
Actual Time 7:02 AM MDT 7:17 PM MDT
Civil Twilight 6:34 AM MDT 7:44 PM MDT
Nautical Twilight 6:02 AM MDT 8:17 PM MDT
Astronomical Twilight 5:29 AM MDT 8:50 PM MDT
Moon 2:44 PM MDT (3/22) 4:06 AM MDT (3/22)
Length of Visible Light 13h 10m
Length of Day
12h 15m
Waxing Gibbous, 78% of the Moon is Illuminated
Mar 22
Waxing Gibbous
Mar 27
Full
Apr 2
Last Quarter
Apr 10
New
Apr 18
First Quarter

Hourly Weather History & Observations

Time (MDT) Temp. Windchill Dew Point Humidity Pressure Visibility Wind Dir Wind Speed Gust Speed Precip Events Conditions
12:53 AM 17.1 °F 5.0 °F 7.0 °F 65% 29.86 in 10.0 mi West 10.4 mph - N/A   Clear
1:53 AM 18.0 °F 5.4 °F 6.1 °F 60% 29.84 in 10.0 mi WNW 11.5 mph - N/A   Clear
2:53 AM 16.0 °F 6.3 °F 5.0 °F 62% 29.84 in 10.0 mi WSW 6.9 mph - N/A   Clear
3:53 AM 17.1 °F 10.0 °F 6.1 °F 62% 29.82 in 10.0 mi North 4.6 mph - N/A   Clear
4:53 AM 17.1 °F - 6.1 °F 62% 29.81 in 10.0 mi Calm Calm - N/A   Clear
5:53 AM 17.1 °F 1.5 °F 7.0 °F 65% 29.80 in - WSW 17.3 mph - N/A   Clear
6:53 AM 18.0 °F 2.6 °F 5.0 °F 57% 29.80 in - WSW 17.3 mph - N/A   Clear
7:53 AM 21.0 °F 8.6 °F 5.0 °F 50% 29.81 in 10.0 mi WSW 12.7 mph - N/A   Clear
8:53 AM 24.1 °F 10.6 °F 3.9 °F 42% 29.79 in - West 17.3 mph - N/A   Clear
9:53 AM 27.0 °F 15.2 °F 3.9 °F 37% 29.78 in 10.0 mi West 15.0 mph 25.3 mph N/A   Clear
10:53 AM 28.0 °F 15.3 °F 3.0 °F 34% 29.78 in - West 18.4 mph 25.3 mph N/A   Mostly Cloudy
11:53 AM 28.9 °F 16.9 °F 3.9 °F 35% 29.78 in - West 17.3 mph 28.8 mph N/A   Overcast
12:53 PM 30.0 °F 18.7 °F 3.0 °F 32% 29.77 in 10.0 mi WSW 16.1 mph 28.8 mph N/A   Scattered Clouds
2:53 PM 28.9 °F 16.9 °F 3.0 °F 33% 29.77 in - WNW 17.3 mph - N/A   Overcast
3:53 PM 30.9 °F 19.8 °F -0.9 °F 26% 29.75 in - West 16.1 mph 23.0 mph N/A   Overcast
4:53 PM 27.0 °F 15.6 °F 1.9 °F 34% 29.81 in - WNW 13.8 mph - N/A   Overcast
5:53 PM 25.0 °F 13.1 °F 1.9 °F 37% 29.83 in - NNW 13.8 mph - N/A   Overcast
6:53 PM 25.0 °F 15.5 °F 3.9 °F 41% 29.83 in - North 9.2 mph - N/A   Overcast
7:42 PM 19.4 °F 9.5 °F 14.0 °F 80% 29.76 in - NNE 8.1 mph - 0.00 in Snow Light Snow
7:53 PM 21.0 °F 13.4 °F 12.9 °F 71% 29.86 in - NNE 5.8 mph - 0.00 in   Overcast
8:07 PM 21.2 °F 11.7 °F 10.4 °F 63% 29.76 in - NNE 8.1 mph - N/A   Overcast
8:53 PM 21.9 °F 11.0 °F 5.0 °F 48% 29.85 in - NNE 10.4 mph - N/A   Overcast
9:53 PM 19.9 °F 10.1 °F 12.9 °F 74% 29.86 in - NE 8.1 mph - N/A   Overcast
10:53 PM 18.0 °F 3.6 °F 10.9 °F 74% 29.89 in - East 15.0 mph - N/A   Overcast
11:29 PM 17.6 °F 3.2 °F 10.4 °F 73% 29.81 in - ENE 15.0 mph - N/A   Overcast
11:53 PM 17.1 °F 2.5 °F 10.0 °F 74% 29.89 in - ENE 15.0 mph - 0.00 in   Overcast